Probability
0 0 0 0 0 0 0 0 0 0 0 0 0 0 0 0 0 0 0 0 0 0 0 0 0 0 0 0 0 0 0 0 0 0 0 0 0 0
0 0 0 0 0 0 0 0 0 0 0 0 0 0 0 0 0 0 0 0 0 0 0 0 0 0 0 0 0 0 0 0 0 0 0 0 0 0
0 0 0 0 0 0 0 0 0 0 0 0 0 0 0 0 0 0 0 0 0 0 0 0 0 0 0 0 0 0 0 0 0 0 0 0 0 0
0 0 0 0 0 0 0 0 0 0 0 0 0 0 0 0 0 0 0 0 0 0 0 0 0 0 0 0 0 0 0 0 0 0 0 0 0 0
0 0 0 0 0 0 0 0 0 0 0 0 0 0 0 0 0 0 0 0 0 0 0 0 0 0 0 0 0 0 0 0 0 0 0 0 0 0
0 0 0 0 0 0 0 0 0 0 0 0 0 0 0 0 0 0 0 0 0 0 0 0 0 0 0 0 0 0 0 0 0 0 0 0 0 0
0 0 0 0 0 0 0 0 0 0 0 0 0 0 0 0 0 0 0 0 0 0 0 0 0 0 0 0 0 0 0 0 0 0 0 0 0 0
0 0 0 0 0 0 0 0 0 0 0 0 0 0 0 0 0 0 0 0 0 0 0 0 0 0 0 0 0 0 0 0 0 0 0 0 0 0
0 0 0 0 0 0 0 0 0 0 0 0 0 0 0 0 0 0 0 0 0 0 0 0 0 0 0 0 0 0 0 0 0 0 0 0 0 0
0 0 0 0 0 0 0 0 0 0 0 0 0 0 0 0 0 0 0 0 0 0 0 0 0 0 0 0 0 0 0 0 0 0 0 0 0 0
0 0 0 0 0 0 0 0 0 0 0 0 0 0 0 0 0 0 0 0 0 0 0 0 0 0 0 0 0 0 0 0 0 0 0 0 0 0
0 0 0 0 0 0 0 0 0 0 0 0 0 0 0 0 0 0 0 0 0 0 0 0 0 0 0 0 0 0 0 0 0 0 0 0 0 0
0 0 0 0 0 0 0 0 0 0 0 0 0 0 0 0 0 0 0 0 0 0 0 0 0 0 0 0 0 0 0 0 0 0 0 0 0 0
0 0 0 0 0 0 0 0 0 0 0 0 0 0 0 0 0 0 0 0 0 0 0 0 0 0 0 0 0 0 0 0 0 0 0 0 0 0
0 0 0 0 0 0 0 0 0 0 0 0 0 0 0 0 0 0 0 0 0 0 0 0 0 0 0 0 0 0 0 0 0 0 0 0 0 0
0 0 0 0 0 0 0 0 0 0 0 0 0 0 0 0 0 0 0 0 0 0 0 0 0 0 0 0 0 0 0 0 0 0 0 0 0 0
0 0 0 0 0 0 0 0 0 0 0 0 0 0 0 0 0 0 0 0 0 0 0 0 0 0 0 0 0 0 0 0 0 0 0 0 0 0
0 0 0 0 0 0 0 0 0 0 0 0 0 0 0 0 0 0 0 0 0 0 0 0 0 0 0 0 0 0 0 0 0 0 0 0 0 0
0 0 0 0 0 0 0 0 0 0 0 0 0 0 0 0 0 0 0 0 0 0 0 0 0 0 0 0 0 0 0 0 0 0 0 0 0 0
0 0 0 0 0 0 0 0 0 0 0 0 0 0 0 0 0 0 0 0 0 0 0 0 0 0 0 0 0 0 0 0 0 0 0 0 0 0
0 0 0 0 0 0 0 0 0 0 0 0 0 0 0 0 0 0 0 0 0 0 0 0 0 0 0 0 0 0 0 0 0 0 0 0 0 0
0 0 0 0 0 0 0 0 0 0 0 0 0 0 0 0 0 0 0 0 0 0 0 0 0 0 0 0 0 0 0 0 0 0 0 0 0 0
0 0 0 0 0 0 0 0 0 0 0 0 0 0 0 0 0 0 0 0 0 0 0 0 0 0 0 0 0 0 0 0 0 0 0 0 0 0
Wind_Speed
3 3 3 3 3 2 2 1 2 2 1 2 2 3 3 3 4 3 3 4 4 3 3 3 3 3 2 1 1 2 3 4 6 8 9 10 11 12
4 5 5 4 3 4 3 2 1 1 0 2 2 3 4 3 5 4 4 7 7 6 6 5 4 3 2 1 2 3 4 6 8 9 11 11 12 12
6 6 6 5 4 4 4 4 3 2 1 1 2 3 4 4 4 4 4 4 5 8 7 6 5 3 2 3 3 5 6 8 9 10 11 12 12 12
7 7 6 5 6 5 4 4 4 3 2 1 2 3 4 3 4 4 4 4 4 7 7 6 5 5 4 4 5 6 7 9 10 11 12 12 13 13
7 7 6 5 6 4 5 4 3 4 3 2 2 2 2 3 3 3 4 4 4 5 6 6 6 6 6 7 7 8 9 10 10 11 12 12 13 13
7 6 5 5 4 4 4 4 4 4 4 3 2 2 2 3 3 3 3 3 3 3 5 5 7 8 8 8 9 9 10 10 11 12 12 13 13 14
7 6 6 7 8 6 4 3 4 3 3 3 2 2 2 3 2 2 2 3 2 2 3 3 3 3 4 6 8 9 10 11 11 12 13 13 13 13
5 5 5 7 9 10 10 9 6 4 2 2 2 2 2 1 1 2 2 3 3 2 3 4 2 3 3 3 8 10 10 10 10 11 12 12 12 13
4 4 4 4 6 4 7 9 9 9 6 2 1 0 1 1 1 1 1 1 2 3 2 3 2 3 3 5 11 9 8 8 8 10 10 11 12 13
3 3 2 3 2 3 3 4 4 4 4 2 1 1 2 2 2 2 2 2 3 2 1 2 3 3 4 4 8 5 5 6 7 8 9 10 11 12
2 2 2 2 4 5 3 3 3 3 5 5 4 3 4 4 2 1 1 2 3 2 1 1 3 3 3 3 4 7 8 9 9 9 10 11 12 13
2 2 4 3 4 4 2 1 1 2 2 3 4 5 5 5 6 2 1 1 1 3 1 1 2 3 5 3 2 3 4 8 10 11 13 13 13 7
0 1 2 5 4 4 2 1 1 0 1 1 1 2 2 2 2 2 0 2 2 3 2 1 1 1 2 5 4 3 3 3 4 7 11 13 13 9
1 1 3 5 4 4 3 2 3 3 1 1 1 1 2 2 2 3 3 3 4 5 5 3 3 3 3 4 5 4 3 4 5 6 5 9 10 12
2 3 4 4 3 3 3 3 3 1 0 1 1 2 2 2 2 2 3 3 5 5 5 5 5 4 5 5 6 5 5 5 4 4 4 4 5 5
1 2 3 3 2 2 2 2 1 1 1 1 2 2 2 2 2 2 2 3 3 4 4 5 5 5 5 7 8 9 6 5 4 4 5 6 6 6
2 1 0 1 1 1 1 1 1 1 1 1 2 2 3 3 3 2 2 2 3 4 4 4 4 5 8 7 8 9 8 7 7 7 6 8 7 7
2 1 2 2 2 2 2 2 2 2 2 2 2 3 3 4 4 3 3 3 4 5 5 4 3 4 3 6 11 9 7 7 6 6 5 8 10 7
3 2 3 3 3 3 3 3 3 3 2 3 3 4 4 4 4 4 4 4 5 5 5 4 3 3 5 7 6 9 6 5 6 7 7 8 10 9
3 4 4 4 4 4 4 4 3 3 3 3 4 4 4 4 4 5 4 5 6 6 6 5 4 5 6 6 6 6 10 9 8 9 9 8 9 13
4 5 5 4 4 4 4 4 4 4 4 4 4 5 4 4 5 5 5 9 9 6 7 7 6 9 6 5 8 8 6 11 13 9 8 9 10 9
5 5 5 5 5 5 4 4 4 4 5 5 5 5 5 5 6 7 6 6 7 7 8 8 6 5 4 7 10 12 11 9 11 18 20 18 9 7
6 6 5 5 5 5 5 5 6 5 5 5 5 5 5 5 6 6 7 7 7 8 8 8 6 5 7 8 10 11 13 13 10 9 9 15 21 24
Wind_Direction
47 49 51 33 26 14 4 320 258 269 280 23 16 8 357 0 1 2 358 340 330 327 332 8 44 48 47 28 328 290 282 283 285 282 280 278 277 278
53 58 54 38 37 30 26 24 17 249 252 45 27 1 354 10 25 29 24 27 26 25 33 40 38 44 28 343 298 289 288 285 282 280 280 281 281 280
54 61 57 49 49 38 36 37 32 31 102 66 43 16 19 18 16 24 33 31 21 25 25 23 20 7 348 320 303 292 287 283 281 282 282 282 283 282
58 59 54 55 53 42 42 41 34 26 61 73 36 21 25 16 18 26 28 31 22 12 9 7 4 356 340 320 304 295 289 284 282 282 282 281 281 281
62 63 58 61 59 49 48 44 34 33 41 77 53 28 23 21 25 28 28 15 11 9 7 7 358 344 329 314 305 299 293 287 283 280 279 279 279 278
59 57 55 62 69 62 54 45 46 47 48 61 56 33 26 14 31 20 10 2 356 0 3 359 352 344 330 318 308 300 292 285 280 277 276 275 275 274
55 46 48 59 68 69 67 55 54 56 53 54 45 31 19 14 11 354 358 337 338 355 339 330 327 320 319 314 307 294 284 278 275 275 275 274 274 274
60 45 46 47 53 55 59 57 60 67 64 62 47 42 2 346 340 352 356 4 335 339 343 309 314 300 296 284 294 292 284 279 276 276 276 277 277 277
62 49 42 40 47 44 49 47 42 49 62 106 100 67 287 286 317 332 329 294 274 295 335 301 322 299 293 304 311 299 289 287 288 286 284 282 281 280
61 56 43 11 30 81 68 47 33 25 37 65 140 227 244 246 220 222 247 281 279 280 234 288 316 297 301 309 317 315 314 315 311 305 298 294 291 287
39 35 26 346 11 68 82 53 26 2 17 30 29 18 2 355 16 72 355 350 321 309 350 294 308 307 301 301 315 331 335 329 317 308 302 298 293 289
27 8 5 356 4 38 105 81 359 327 356 7 15 16 18 15 28 52 140 165 281 296 307 318 310 335 320 297 286 296 309 309 309 310 308 302 294 287
62 341 324 343 355 359 27 172 292 32 72 18 358 356 2 7 9 6 355 187 217 255 282 345 287 280 268 296 296 267 266 276 289 292 300 298 290 282
222 264 290 325 346 354 357 327 359 52 65 18 352 337 335 331 325 317 301 268 240 248 258 243 249 234 264 281 283 289 277 263 267 276 274 290 290 290
233 272 304 330 3 360 343 360 36 54 29 335 314 299 285 282 287 296 293 283 275 266 258 240 238 249 250 263 276 284 300 286 264 264 271 270 270 273
270 296 324 338 359 335 348 10 15 279 258 265 281 284 287 284 288 294 295 305 302 294 278 253 239 236 253 257 266 276 269 273 285 270 274 276 269 258
223 190 245 300 304 297 285 276 275 300 305 277 276 287 292 294 291 287 275 277 273 282 292 283 257 243 242 251 264 264 267 266 266 274 278 281 274 260
225 198 232 241 249 256 263 270 264 260 258 261 268 273 282 285 287 282 268 265 273 275 276 279 293 303 290 263 237 253 260 263 266 263 258 276 282 269
226 222 234 239 242 244 244 242 247 251 251 255 260 264 267 272 275 278 275 274 274 274 271 266 259 262 286 291 275 233 240 265 274 274 265 263 275 279
212 224 234 236 236 237 239 239 245 250 247 251 256 259 260 265 270 270 269 269 277 279 279 266 243 235 248 270 277 269 253 259 268 274 277 274 271 276
226 230 231 232 234 233 235 235 236 240 242 243 250 253 252 255 263 263 265 276 281 278 279 277 258 269 266 262 270 272 260 253 257 262 271 278 283 280
229 231 232 229 229 230 230 231 235 239 241 241 244 247 247 249 257 262 264 269 270 269 272 276 274 269 251 258 270 280 286 282 271 271 266 260 264 268
228 229 230 228 227 224 223 227 232 238 237 237 242 244 244 251 254 257 262 264 268 271 276 281 279 263 259 261 269 277 282 287 290 285 272 264 263 263